Time,TemperatureF,DewpointF,PressureIn,WindDirection,WindDirectionDegrees,WindSpeedMPH,WindSpeedGustMPH,Humidity,HourlyPrecipIn,Conditions,Clouds,dailyrainin,SoftwareType,DateUTC
2013-07-25 00:04:00,56.0,49.9,29.99,SW,225,1.0,9.0,80,0.00,,,0.00,Weather View 32 v70,2013-07-25 04:04:00,
2013-07-25 00:09:00,56.0,49.9,29.99,West,270,1.0,9.0,80,0.00,,,0.00,Weather View 32 v70,2013-07-25 04:09:00,
2013-07-25 00:14:00,56.0,50.2,29.99,SE,135,2.0,8.0,81,0.00,,,0.00,Weather View 32 v70,2013-07-25 04:14:00,
2013-07-25 00:20:00,56.0,50.2,29.99,WSW,248,1.0,8.0,81,0.00,,,0.00,Weather View 32 v70,2013-07-25 04:20:00,
2013-07-25 00:25:00,56.0,50.2,29.99,WNW,292,1.0,8.0,81,0.00,,,0.00,Weather View 32 v70,2013-07-25 04:25:00,
2013-07-25 00:34:00,56.0,49.9,29.99,WNW,292,1.0,6.0,80,0.00,,,0.00,Weather View 32 v70,2013-07-25 04:34:00,
2013-07-25 00:39:00,56.0,50.2,29.99,SW,225,0.0,6.0,81,0.00,,,0.00,Weather View 32 v70,2013-07-25 04:39:00,
2013-07-25 00:44:00,56.0,50.2,29.99,West,270,0.0,6.0,81,0.00,,,0.00,Weather View 32 v70,2013-07-25 04:44:00,
2013-07-25 00:55:00,56.0,50.6,29.99,WSW,248,1.0,6.0,82,0.00,,,0.00,Weather View 32 v70,2013-07-25 04:55:00,
2013-07-25 01:04:00,56.0,50.6,29.99,West,270,1.0,6.0,82,0.00,,,0.00,Weather View 32 v70,2013-07-25 05:04:00,
2013-07-25 01:15:00,56.0,50.6,29.99,WSW,248,1.0,6.0,82,0.00,,,0.00,Weather View 32 v70,2013-07-25 05:15:00,
2013-07-25 01:24:00,56.0,50.9,29.99,WSW,248,2.0,6.0,83,0.00,,,0.00,Weather View 32 v70,2013-07-25 05:24:00,
2013-07-25 01:35:00,56.0,50.9,29.99,SE,135,0.0,6.0,83,0.00,,,0.00,Weather View 32 v70,2013-07-25 05:35:00,
2013-07-25 01:40:00,55.0,50.2,29.99,West,270,0.0,4.0,84,0.00,,,0.00,Weather View 32 v70,2013-07-25 05:40:00,
2013-07-25 01:45:00,56.0,51.5,30.00,South,180,1.0,4.0,85,0.00,,,0.00,Weather View 32 v70,2013-07-25 05:45:00,
2013-07-25 01:54:00,55.0,50.6,29.99,SSW,202,1.0,3.0,85,0.00,,,0.00,Weather View 32 v70,2013-07-25 05:54:00,
2013-07-25 02:05:00,55.0,51.2,29.99,WNW,292,1.0,3.0,87,0.00,,,0.00,Weather View 32 v70,2013-07-25 06:05:00,
2013-07-25 02:14:00,55.0,51.2,30.00,WNW,292,1.0,3.0,87,0.00,,,0.00,Weather View 32 v70,2013-07-25 06:14:00,
2013-07-25 02:25:00,55.0,51.2,29.99,WNW,292,1.0,3.0,87,0.00,,,0.00,Weather View 32 v70,2013-07-25 06:25:00,
2013-07-25 02:34:00,55.0,51.5,29.99,WSW,248,1.0,3.0,88,0.00,,,0.00,Weather View 32 v70,2013-07-25 06:34:00,
2013-07-25 02:43:00,54.0,50.8,29.99,WNW,292,0.0,3.0,89,0.00,,,0.00,Weather View 32 v70,2013-07-25 06:43:00,
2013-07-25 02:49:00,54.0,51.4,29.99,WNW,292,0.0,3.0,91,0.00,,,0.00,Weather View 32 v70,2013-07-25 06:49:00,
2013-07-25 02:55:00,54.0,51.4,29.99,West,270,0.0,3.0,91,0.00,,,0.00,Weather View 32 v70,2013-07-25 06:55:00,
2013-07-25 03:04:00,54.0,51.4,30.00,WNW,292,0.0,2.0,91,0.00,,,0.00,Weather View 32 v70,2013-07-25 07:04:00,
2013-07-25 03:15:00,54.0,51.7,30.00,SW,225,0.0,2.0,92,0.00,,,0.00,Weather View 32 v70,2013-07-25 07:15:00,
2013-07-25 03:24:00,55.0,52.7,30.00,South,180,0.0,2.0,92,0.00,,,0.00,Weather View 32 v70,2013-07-25 07:24:00,
2013-07-25 03:35:00,54.0,52.0,30.00,West,270,1.0,2.0,93,0.00,,,0.00,Weather View 32 v70,2013-07-25 07:35:00,
2013-07-25 03:43:00,53.0,51.0,30.00,WNW,292,0.0,2.0,93,0.00,,,0.00,Weather View 32 v70,2013-07-25 07:43:00,
2013-07-25 03:50:00,53.0,51.6,30.00,WSW,248,0.0,2.0,95,0.00,,,0.00,Weather View 32 v70,2013-07-25 07:50:00,
2013-07-25 03:59:00,53.0,51.9,30.01,WNW,292,0.0,2.0,96,0.00,,,0.00,Weather View 32 v70,2013-07-25 07:59:00,
2013-07-25 04:05:00,53.0,52.2,30.02,WNW,292,0.0,2.0,97,0.00,,,0.00,Weather View 32 v70,2013-07-25 08:05:00,
2013-07-25 04:14:00,54.0,53.2,30.01,SW,225,0.0,2.0,97,0.00,,,0.00,Weather View 32 v70,2013-07-25 08:14:00,
2013-07-25 04:25:00,54.0,52.9,30.01,WNW,292,0.0,2.0,96,0.00,,,0.00,Weather View 32 v70,2013-07-25 08:25:00,
2013-07-25 04:34:00,54.0,52.9,30.02,WNW,292,0.0,2.0,96,0.00,,,0.00,Weather View 32 v70,2013-07-25 08:34:00,
2013-07-25 04:39:00,54.0,52.9,30.02,WNW,292,0.0,2.0,96,0.00,,,0.00,Weather View 32 v70,2013-07-25 08:39:00,
2013-07-25 04:44:00,54.0,52.9,30.03,West,270,1.0,2.0,96,0.00,,,0.00,Weather View 32 v70,2013-07-25 08:44:00,
2013-07-25 04:54:00,53.0,52.2,30.03,WNW,292,1.0,2.0,97,0.00,,,0.00,Weather View 32 v70,2013-07-25 08:54:00,
2013-07-25 04:59:00,54.0,53.4,30.02,WNW,292,0.0,2.0,98,0.00,,,0.00,Weather View 32 v70,2013-07-25 08:59:00,
2013-07-25 05:05:00,54.0,53.4,30.02,WNW,292,0.0,2.0,98,0.00,,,0.00,Weather View 32 v70,2013-07-25 09:05:00,
2013-07-25 05:09:00,54.0,53.4,30.03,WNW,292,1.0,2.0,98,0.00,,,0.00,Weather View 32 v70,2013-07-25 09:09:00,
2013-07-25 05:14:00,54.0,53.4,30.03,WNW,292,1.0,2.0,98,0.00,,,0.00,Weather View 32 v70,2013-07-25 09:14:00,
2013-07-25 05:24:00,54.0,53.4,30.03,WNW,292,0.0,2.0,98,0.00,,,0.00,Weather View 32 v70,2013-07-25 09:24:00,
2013-07-25 05:30:00,54.0,53.4,30.03,WNW,292,1.0,2.0,98,0.00,,,0.00,Weather View 32 v70,2013-07-25 09:30:00,
2013-07-25 05:35:00,54.0,53.4,30.04,West,270,0.0,2.0,98,0.00,,,0.00,Weather View 32 v70,2013-07-25 09:35:00,
2013-07-25 05:44:00,54.0,53.4,30.03,WNW,292,0.0,2.0,98,0.00,,,0.00,Weather View 32 v70,2013-07-25 09:44:00,
2013-07-25 05:50:00,55.0,54.4,30.03,West,270,0.0,2.0,98,0.00,,,0.00,Weather View 32 v70,2013-07-25 09:50:00,
2013-07-25 05:59:00,54.0,52.9,30.03,WNW,292,1.0,1.0,96,0.00,,,0.00,Weather View 32 v70,2013-07-25 09:59:00,
2013-07-25 06:10:00,54.0,53.2,30.04,WNW,292,0.0,1.0,97,0.00,,,0.00,Weather View 32 v70,2013-07-25 10:10:00,
2013-07-25 06:19:00,54.0,53.4,30.03,WNW,292,0.0,1.0,98,0.00,,,0.00,Weather View 32 v70,2013-07-25 10:19:00,
2013-07-25 06:29:00,53.0,52.7,30.04,SW,225,1.0,2.0,99,0.00,,,0.00,Weather View 32 v70,2013-07-25 10:29:00,
2013-07-25 06:35:00,54.0,53.7,30.04,West,270,0.0,2.0,99,0.00,,,0.00,Weather View 32 v70,2013-07-25 10:35:00,
2013-07-25 06:40:00,54.0,53.7,30.05,WNW,292,0.0,2.0,99,0.00,,,0.00,Weather View 32 v70,2013-07-25 10:40:00,
2013-07-25 06:45:00,54.0,53.7,30.05,WSW,248,0.0,2.0,99,0.00,,,0.00,Weather View 32 v70,2013-07-25 10:45:00,
2013-07-25 06:55:00,54.0,54.0,30.06,WNW,292,0.0,2.0,100,0.00,,,0.00,Weather View 32 v70,2013-07-25 10:55:00,
2013-07-25 07:04:00,55.0,54.7,30.06,WNW,292,1.0,2.0,99,0.00,,,0.00,Weather View 32 v70,2013-07-25 11:04:00,
2013-07-25 07:15:00,56.0,54.9,30.06,West,270,2.0,3.0,96,0.00,,,0.00,Weather View 32 v70,2013-07-25 11:15:00,
2013-07-25 07:24:00,57.0,53.8,30.07,South,180,1.0,4.0,89,0.00,,,0.00,Weather View 32 v70,2013-07-25 11:24:00,
2013-07-25 07:34:00,57.0,52.5,30.07,West,270,1.0,4.0,85,0.00,,,0.00,Weather View 32 v70,2013-07-25 11:34:00,
2013-07-25 07:45:00,57.0,52.5,30.07,WNW,292,1.0,4.0,85,0.00,,,0.00,Weather View 32 v70,2013-07-25 11:45:00,
2013-07-25 07:54:00,59.0,54.2,30.07,South,180,1.0,4.0,84,0.00,,,0.00,Weather View 32 v70,2013-07-25 11:54:00,
2013-07-25 08:00:00,60.0,54.5,30.08,West,270,1.0,4.0,82,0.00,,,0.00,Weather View 32 v70,2013-07-25 12:00:00,
2013-07-25 08:09:00,61.0,54.8,30.08,SSW,202,3.0,4.0,80,0.00,,,0.00,Weather View 32 v70,2013-07-25 12:09:00,
2013-07-25 08:14:00,61.0,54.4,30.08,South,180,2.0,4.0,79,0.00,,,0.00,Weather View 32 v70,2013-07-25 12:14:00,
2013-07-25 08:25:00,61.0,53.0,30.09,SW,225,1.0,4.0,75,0.00,,,0.00,Weather View 32 v70,2013-07-25 12:25:00,
2013-07-25 08:30:00,61.0,52.6,30.09,WNW,292,1.0,4.0,74,0.00,,,0.00,Weather View 32 v70,2013-07-25 12:30:00,
2013-07-25 08:39:00,61.0,53.0,30.09,West,270,1.0,4.0,75,0.00,,,0.00,Weather View 32 v70,2013-07-25 12:39:00,
2013-07-25 08:44:00,61.0,52.3,30.09,SSW,202,1.0,4.0,73,0.00,,,0.00,Weather View 32 v70,2013-07-25 12:44:00,
2013-07-25 08:50:00,61.0,52.3,30.09,WNW,292,2.0,4.0,73,0.00,,,0.00,Weather View 32 v70,2013-07-25 12:50:00,
2013-07-25 08:54:00,60.0,51.3,30.10,West,270,1.0,4.0,73,0.00,,,0.00,Weather View 32 v70,2013-07-25 12:54:00,
2013-07-25 09:04:00,61.0,52.6,30.10,SSE,158,1.0,5.0,74,0.00,,,0.00,Weather View 32 v70,2013-07-25 13:04:00,
2013-07-25 09:10:00,61.0,52.6,30.10,SW,225,1.0,5.0,74,0.00,,,0.00,Weather View 32 v70,2013-07-25 13:10:00,
2013-07-25 09:19:00,62.0,52.8,30.10,SSE,158,1.0,5.0,72,0.00,,,0.00,Weather View 32 v70,2013-07-25 13:19:00,
2013-07-25 09:29:00,63.0,53.0,30.09,SW,225,1.0,5.0,70,0.00,,,0.00,Weather View 32 v70,2013-07-25 13:29:00,
2013-07-25 09:35:00,62.0,52.1,30.10,WNW,292,1.0,5.0,70,0.00,,,0.00,Weather View 32 v70,2013-07-25 13:35:00,
2013-07-25 09:40:00,62.0,52.5,30.10,SE,135,1.0,5.0,71,0.00,,,0.00,Weather View 32 v70,2013-07-25 13:40:00,
2013-07-25 09:45:00,62.0,52.8,30.10,South,180,1.0,5.0,72,0.00,,,0.00,Weather View 32 v70,2013-07-25 13:45:00,
2013-07-25 09:50:00,62.0,53.2,30.09,WSW,248,2.0,5.0,73,0.00,,,0.00,Weather View 32 v70,2013-07-25 13:50:00,
2013-07-25 10:00:00,62.0,52.1,30.10,WSW,248,1.0,5.0,70,0.00,,,0.00,Weather View 32 v70,2013-07-25 14:00:00,
2013-07-25 10:09:00,63.0,52.6,30.10,South,180,1.0,5.0,69,0.00,,,0.00,Weather View 32 v70,2013-07-25 14:09:00,
2013-07-25 10:14:00,63.0,53.4,30.10,WSW,248,2.0,5.0,71,0.00,,,0.00,Weather View 32 v70,2013-07-25 14:14:00,
2013-07-25 10:20:00,63.0,53.4,30.10,West,270,1.0,5.0,71,0.00,,,0.00,Weather View 32 v70,2013-07-25 14:20:00,
2013-07-25 10:29:00,64.0,54.0,30.10,South,180,1.0,5.0,70,0.00,,,0.00,Weather View 32 v70,2013-07-25 14:29:00,
2013-07-25 10:34:00,65.0,54.9,30.11,SW,225,1.0,5.0,70,0.00,,,0.00,Weather View 32 v70,2013-07-25 14:34:00,
2013-07-25 10:45:00,66.0,55.5,30.11,SE,135,2.0,4.0,69,0.00,,,0.00,Weather View 32 v70,2013-07-25 14:45:00,
2013-07-25 10:54:00,66.0,55.1,30.10,SW,225,1.0,4.0,68,0.00,,,0.00,Weather View 32 v70,2013-07-25 14:54:00,
2013-07-25 11:00:00,67.0,55.2,30.10,SW,225,1.0,4.0,66,0.00,,,0.00,Weather View 32 v70,2013-07-25 15:00:00,
2013-07-25 11:09:00,67.0,55.2,30.10,South,180,2.0,5.0,66,0.00,,,0.00,Weather View 32 v70,2013-07-25 15:09:00,
2013-07-25 11:20:00,66.0,53.4,30.10,WSW,248,1.0,5.0,64,0.00,,,0.00,Weather View 32 v70,2013-07-25 15:20:00,
2013-07-25 11:29:00,67.0,55.6,30.10,SSE,158,1.0,5.0,67,0.00,,,0.00,Weather View 32 v70,2013-07-25 15:29:00,
2013-07-25 11:34:00,67.0,55.6,30.10,WNW,292,1.0,5.0,67,0.00,,,0.00,Weather View 32 v70,2013-07-25 15:34:00,
2013-07-25 11:40:00,66.0,55.1,30.10,West,270,3.0,5.0,68,0.00,,,0.00,Weather View 32 v70,2013-07-25 15:40:00,
2013-07-25 11:45:00,67.0,55.2,30.10,SSE,158,2.0,5.0,66,0.00,,,0.00,Weather View 32 v70,2013-07-25 15:45:00,
2013-07-25 11:54:00,67.0,54.4,30.10,South,180,1.0,5.0,64,0.00,,,0.00,Weather View 32 v70,2013-07-25 15:54:00,
2013-07-25 12:00:00,68.0,56.2,30.10,SW,225,3.0,5.0,66,0.00,,,0.00,Weather View 32 v70,2013-07-25 16:00:00,
2013-07-25 12:09:00,68.0,56.2,30.10,West,270,1.0,5.0,66,0.00,,,0.00,Weather View 32 v70,2013-07-25 16:09:00,
2013-07-25 12:20:00,68.0,54.5,30.10,SE,135,1.0,5.0,62,0.00,,,0.00,Weather View 32 v70,2013-07-25 16:20:00,
2013-07-25 12:25:00,68.0,56.6,30.10,SSE,158,1.0,5.0,67,0.00,,,0.00,Weather View 32 v70,2013-07-25 16:25:00,
2013-07-25 12:34:00,68.0,56.6,30.11,SE,135,0.0,5.0,67,0.00,,,0.00,Weather View 32 v70,2013-07-25 16:34:00,
2013-07-25 12:44:00,68.0,56.6,30.11,South,180,0.0,5.0,67,0.00,,,0.00,Weather View 32 v70,2013-07-25 16:44:00,
2013-07-25 12:49:00,68.0,56.2,30.11,WSW,248,2.0,5.0,66,0.00,,,0.00,Weather View 32 v70,2013-07-25 16:49:00,
2013-07-25 13:00:00,69.0,57.1,30.10,South,180,2.0,3.0,66,0.00,,,0.00,Weather View 32 v70,2013-07-25 17:00:00,
2013-07-25 13:05:00,70.0,57.7,30.11,WSW,248,0.0,3.0,65,0.00,,,0.00,Weather View 32 v70,2013-07-25 17:05:00,
2013-07-25 13:14:00,70.0,57.2,30.10,SW,225,1.0,3.0,64,0.00,,,0.00,Weather View 32 v70,2013-07-25 17:14:00,
2013-07-25 13:25:00,70.0,57.7,30.10,WNW,292,1.0,3.0,65,0.00,,,0.00,Weather View 32 v70,2013-07-25 17:25:00,
2013-07-25 13:34:00,70.0,57.2,30.10,SE,135,1.0,3.0,64,0.00,,,0.00,Weather View 32 v70,2013-07-25 17:34:00,
2013-07-25 13:44:00,70.0,56.8,30.10,SSE,158,1.0,4.0,63,0.00,,,0.00,Weather View 32 v70,2013-07-25 17:44:00,
2013-07-25 13:49:00,71.0,58.2,30.10,SW,225,2.0,4.0,64,0.00,,,0.00,Weather View 32 v70,2013-07-25 17:49:00,
2013-07-25 13:59:00,71.0,57.7,30.10,WNW,292,1.0,4.0,63,0.00,,,0.00,Weather View 32 v70,2013-07-25 17:59:00,
2013-07-25 14:10:00,70.0,57.7,30.10,SW,225,1.0,4.0,65,0.00,,,0.00,Weather View 32 v70,2013-07-25 18:10:00,
2013-07-25 14:19:00,70.0,57.7,30.09,SE,135,2.0,4.0,65,0.00,,,0.00,Weather View 32 v70,2013-07-25 18:19:00,
2013-07-25 14:29:00,71.0,59.5,30.09,South,180,1.0,4.0,67,0.00,,,0.00,Weather View 32 v70,2013-07-25 18:29:00,
2013-07-25 14:35:00,71.0,58.2,30.09,SE,135,1.0,4.0,64,0.00,,,0.00,Weather View 32 v70,2013-07-25 18:35:00,
2013-07-25 14:44:00,71.0,58.6,30.09,WSW,248,1.0,4.0,65,0.00,,,0.00,Weather View 32 v70,2013-07-25 18:44:00,
2013-07-25 14:50:00,71.0,57.7,30.09,West,270,1.0,4.0,63,0.00,,,0.00,Weather View 32 v70,2013-07-25 18:50:00,
2013-07-25 14:59:00,72.0,59.6,30.09,South,180,1.0,4.0,65,0.00,,,0.00,Weather View 32 v70,2013-07-25 18:59:00,
2013-07-25 15:09:00,71.0,58.6,30.09,SSW,202,1.0,4.0,65,0.00,,,0.00,Weather View 32 v70,2013-07-25 19:09:00,
2013-07-25 15:15:00,71.0,58.6,30.09,WNW,292,1.0,4.0,65,0.00,,,0.00,Weather View 32 v70,2013-07-25 19:15:00,
2013-07-25 15:24:00,71.0,59.0,30.09,WSW,248,1.0,4.0,66,0.00,,,0.00,Weather View 32 v70,2013-07-25 19:24:00,
2013-07-25 15:29:00,71.0,59.0,30.09,WSW,248,2.0,4.0,66,0.00,,,0.00,Weather View 32 v70,2013-07-25 19:29:00,
2013-07-25 15:34:00,71.0,58.2,30.09,WSW,248,1.0,4.0,64,0.00,,,0.00,Weather View 32 v70,2013-07-25 19:34:00,
2013-07-25 15:40:00,71.0,59.0,30.09,West,270,1.0,4.0,66,0.00,,,0.00,Weather View 32 v70,2013-07-25 19:40:00,
2013-07-25 15:45:00,71.0,59.5,30.09,SSW,202,1.0,4.0,67,0.00,,,0.00,Weather View 32 v70,2013-07-25 19:45:00,
2013-07-25 15:50:00,71.0,59.0,30.09,West,270,1.0,4.0,66,0.00,,,0.00,Weather View 32 v70,2013-07-25 19:50:00,
2013-07-25 16:00:00,71.0,59.9,30.09,SSW,202,1.0,4.0,68,0.00,,,0.00,Weather View 32 v70,2013-07-25 20:00:00,
2013-07-25 16:05:00,71.0,59.0,30.09,WNW,292,1.0,4.0,66,0.00,,,0.00,Weather View 32 v70,2013-07-25 20:05:00,
2013-07-25 16:14:00,71.0,59.0,30.08,West,270,1.0,4.0,66,0.00,,,0.00,Weather View 32 v70,2013-07-25 20:14:00,
2013-07-25 16:25:00,70.0,60.1,30.08,West,270,1.0,4.0,71,0.00,,,0.00,Weather View 32 v70,2013-07-25 20:25:00,
2013-07-25 16:30:00,70.0,60.5,30.08,WNW,292,1.0,4.0,72,0.00,,,0.00,Weather View 32 v70,2013-07-25 20:30:00,
2013-07-25 16:39:00,69.0,61.1,30.08,West,270,0.0,3.0,76,0.00,,,0.00,Weather View 32 v70,2013-07-25 20:39:00,
2013-07-25 16:44:00,68.0,60.5,30.08,West,270,1.0,3.0,77,0.00,,,0.00,Weather View 32 v70,2013-07-25 20:44:00,
2013-07-25 16:50:00,68.0,61.6,30.08,WNW,292,1.0,3.0,80,0.00,,,0.00,Weather View 32 v70,2013-07-25 20:50:00,
2013-07-25 16:59:00,68.0,61.2,30.08,WNW,292,0.0,3.0,79,0.00,,,0.00,Weather View 32 v70,2013-07-25 20:59:00,
2013-07-25 17:05:00,68.0,61.6,30.08,West,270,0.0,3.0,80,0.00,,,0.00,Weather View 32 v70,2013-07-25 21:05:00,
2013-07-25 17:14:00,68.0,61.6,30.08,West,270,0.0,3.0,80,0.00,,,0.00,Weather View 32 v70,2013-07-25 21:14:00,
2013-07-25 17:25:00,68.0,62.6,30.08,West,270,1.0,3.0,83,0.00,,,0.00,Weather View 32 v70,2013-07-25 21:25:00,
2013-07-25 17:30:00,68.0,63.0,30.08,WNW,292,1.0,3.0,84,0.00,,,0.00,Weather View 32 v70,2013-07-25 21:30:00,
2013-07-25 17:34:00,68.0,63.3,30.08,WNW,292,1.0,3.0,85,0.00,,,0.00,Weather View 32 v70,2013-07-25 21:34:00,
2013-07-25 17:39:00,67.0,62.7,30.08,SW,225,1.0,3.0,86,0.00,,,0.00,Weather View 32 v70,2013-07-25 21:39:00,
2013-07-25 17:50:00,67.0,62.7,30.08,SSW,202,1.0,3.0,86,0.00,,,0.00,Weather View 32 v70,2013-07-25 21:50:00,
2013-07-25 17:59:00,66.0,61.7,30.09,WNW,292,1.0,3.0,86,0.00,,,0.00,Weather View 32 v70,2013-07-25 21:59:00,
2013-07-25 18:05:00,66.0,62.0,30.09,WNW,292,0.0,3.0,87,0.00,,,0.00,Weather View 32 v70,2013-07-25 22:05:00,
2013-07-25 18:10:00,66.0,62.0,30.09,WNW,292,0.0,3.0,87,0.00,,,0.00,Weather View 32 v70,2013-07-25 22:10:00,
2013-07-25 18:19:00,66.0,62.7,30.09,WNW,292,0.0,2.0,89,0.00,,,0.00,Weather View 32 v70,2013-07-25 22:19:00,
2013-07-25 18:24:00,66.0,63.3,30.09,West,270,1.0,2.0,91,0.00,,,0.00,Weather View 32 v70,2013-07-25 22:24:00,
2013-07-25 18:29:00,66.0,63.0,30.09,WNW,292,0.0,2.0,90,0.00,,,0.00,Weather View 32 v70,2013-07-25 22:29:00,
2013-07-25 18:35:00,66.0,63.0,30.09,WSW,248,1.0,2.0,90,0.00,,,0.00,Weather View 32 v70,2013-07-25 22:35:00,
2013-07-25 18:44:00,66.0,63.3,30.09,West,270,0.0,2.0,91,0.00,,,0.00,Weather View 32 v70,2013-07-25 22:44:00,
2013-07-25 18:49:00,66.0,63.3,30.10,WNW,292,0.0,2.0,91,0.00,,,0.00,Weather View 32 v70,2013-07-25 22:49:00,
2013-07-25 18:55:00,66.0,63.3,30.09,WNW,292,0.0,1.0,91,0.00,,,0.00,Weather View 32 v70,2013-07-25 22:55:00,
2013-07-25 19:04:00,65.0,62.0,30.09,WNW,292,0.0,1.0,90,0.00,,,0.00,Weather View 32 v70,2013-07-25 23:04:00,
2013-07-25 19:15:00,65.0,62.0,30.09,West,270,1.0,1.0,90,0.00,,,0.00,Weather View 32 v70,2013-07-25 23:15:00,
2013-07-25 19:24:00,65.0,62.3,30.09,South,180,1.0,2.0,91,0.00,,,0.00,Weather View 32 v70,2013-07-25 23:24:00,
2013-07-25 19:34:00,65.0,62.3,30.10,WNW,292,0.0,2.0,91,0.00,,,0.00,Weather View 32 v70,2013-07-25 23:34:00,
2013-07-25 19:40:00,65.0,62.3,30.10,WSW,248,1.0,2.0,91,0.00,,,0.00,Weather View 32 v70,2013-07-25 23:40:00,
2013-07-25 19:49:00,65.0,62.3,30.10,WSW,248,1.0,2.0,91,0.00,,,0.00,Weather View 32 v70,2013-07-25 23:49:00,
2013-07-25 19:55:00,65.0,62.3,30.09,WSW,248,0.0,2.0,91,0.00,,,0.00,Weather View 32 v70,2013-07-25 23:55:00,
2013-07-25 20:04:00,65.0,62.0,30.10,WSW,248,0.0,2.0,90,0.00,,,0.00,Weather View 32 v70,2013-07-26 00:04:00,
2013-07-25 20:14:00,65.0,62.0,30.10,West,270,0.0,2.0,90,0.00,,,0.00,Weather View 32 v70,2013-07-26 00:14:00,
2013-07-25 20:20:00,65.0,62.0,30.09,WSW,248,1.0,2.0,90,0.00,,,0.00,Weather View 32 v70,2013-07-26 00:20:00,
2013-07-25 20:25:00,65.0,61.7,30.10,West,270,1.0,1.0,89,0.00,,,0.00,Weather View 32 v70,2013-07-26 00:25:00,
2013-07-25 20:30:00,65.0,61.7,30.10,WSW,248,1.0,1.0,89,0.00,,,0.00,Weather View 32 v70,2013-07-26 00:30:00,
2013-07-25 20:34:00,65.0,61.7,30.09,WNW,292,1.0,2.0,89,0.00,,,0.00,Weather View 32 v70,2013-07-26 00:34:00,
2013-07-25 20:39:00,65.0,61.7,30.09,WNW,292,1.0,2.0,89,0.00,,,0.00,Weather View 32 v70,2013-07-26 00:39:00,
2013-07-25 20:49:00,65.0,61.7,30.10,WSW,248,0.0,2.0,89,0.00,,,0.00,Weather View 32 v70,2013-07-26 00:49:00,
2013-07-25 20:54:00,65.0,61.7,30.10,South,180,1.0,2.0,89,0.00,,,0.00,Weather View 32 v70,2013-07-26 00:54:00,
2013-07-25 21:05:00,65.0,61.7,30.10,West,270,1.0,3.0,89,0.00,,,0.00,Weather View 32 v70,2013-07-26 01:05:00,
2013-07-25 21:14:00,65.0,61.7,30.10,West,270,1.0,3.0,89,0.00,,,0.00,Weather View 32 v70,2013-07-26 01:14:00,
2013-07-25 21:25:00,64.0,61.0,30.11,West,270,0.0,3.0,90,0.00,,,0.00,Weather View 32 v70,2013-07-26 01:25:00,
2013-07-25 21:34:00,65.0,62.0,30.10,West,270,0.0,3.0,90,0.00,,,0.00,Weather View 32 v70,2013-07-26 01:34:00,
2013-07-25 21:44:00,65.0,62.0,30.10,West,270,0.0,3.0,90,0.00,,,0.00,Weather View 32 v70,2013-07-26 01:44:00,
2013-07-25 21:50:00,64.0,61.0,30.10,West,270,0.0,3.0,90,0.00,,,0.00,Weather View 32 v70,2013-07-26 01:50:00,
2013-07-25 21:59:00,64.0,61.0,30.10,West,270,1.0,3.0,90,0.00,,,0.00,Weather View 32 v70,2013-07-26 01:59:00,
2013-07-25 22:10:00,64.0,61.3,30.10,WNW,292,0.0,1.0,91,0.00,,,0.00,Weather View 32 v70,2013-07-26 02:10:00,
2013-07-25 22:19:00,64.0,61.6,30.10,WNW,292,1.0,1.0,92,0.00,,,0.00,Weather View 32 v70,2013-07-26 02:19:00,
2013-07-25 22:24:00,63.0,60.6,30.10,West,270,1.0,1.0,92,0.00,,,0.00,Weather View 32 v70,2013-07-26 02:24:00,
2013-07-25 22:30:00,63.0,60.9,30.10,WNW,292,0.0,2.0,93,0.00,,,0.00,Weather View 32 v70,2013-07-26 02:30:00,
2013-07-25 22:39:00,63.0,60.9,30.10,WNW,292,0.0,2.0,93,0.00,,,0.00,Weather View 32 v70,2013-07-26 02:39:00,
2013-07-25 22:49:00,63.0,60.9,30.10,WNW,292,1.0,2.0,93,0.00,,,0.00,Weather View 32 v70,2013-07-26 02:49:00,
2013-07-25 22:55:00,63.0,60.6,30.10,WNW,292,0.0,2.0,92,0.00,,,0.00,Weather View 32 v70,2013-07-26 02:55:00,
2013-07-25 23:05:00,63.0,60.9,30.10,WNW,292,1.0,2.0,93,0.00,,,0.00,Weather View 32 v70,2013-07-26 03:05:00,
2013-07-25 23:14:00,64.0,61.6,30.10,WSW,248,1.0,2.0,92,0.00,,,0.00,Weather View 32 v70,2013-07-26 03:14:00,
2013-07-25 23:25:00,64.0,61.6,30.10,WNW,292,0.0,2.0,92,0.00,,,0.00,Weather View 32 v70,2013-07-26 03:25:00,
2013-07-25 23:34:00,64.0,61.6,30.10,WNW,292,0.0,2.0,92,0.00,,,0.00,Weather View 32 v70,2013-07-26 03:34:00,
2013-07-25 23:41:00,64.0,61.6,30.10,WNW,292,0.0,2.0,92,0.00,,,0.00,Weather View 32 v70,2013-07-26 03:41:00,
2013-07-25 23:50:00,64.0,61.6,30.10,WNW,292,1.0,3.0,92,0.00,,,0.00,Weather View 32 v70,2013-07-26 03:50:00,
2013-07-25 23:59:00,64.0,61.3,30.10,West,270,1.0,3.0,91,0.00,,,0.00,Weather View 32 v70,2013-07-26 03:59:00,